Year,Month,Day,Hour,Minute,Value (Times are PST for temperature in C)
2020,06,03,00,00,8.90
2020,06,03,00,01,8.90
2020,06,03,00,02,8.90
2020,06,03,00,03,8.80
2020,06,03,00,04,8.80
2020,06,03,00,05,8.80
2020,06,03,00,06,8.80
2020,06,03,00,07,8.80
2020,06,03,00,08,8.80
2020,06,03,00,09,8.80
2020,06,03,00,10,8.80
2020,06,03,00,11,8.80
2020,06,03,00,12,8.80
2020,06,03,00,13,8.70
2020,06,03,00,14,8.70
2020,06,03,00,15,8.70
2020,06,03,00,16,8.70
2020,06,03,00,17,8.70
2020,06,03,00,18,8.70
2020,06,03,00,19,8.70
2020,06,03,00,20,8.70
2020,06,03,00,21,8.60
2020,06,03,00,22,8.60
2020,06,03,00,23,8.60
2020,06,03,00,24,8.60
2020,06,03,00,25,8.60
2020,06,03,00,26,8.60
2020,06,03,00,27,8.60
2020,06,03,00,28,8.60
2020,06,03,00,29,8.50
2020,06,03,00,30,8.50
2020,06,03,00,31,8.50
2020,06,03,00,32,8.50
2020,06,03,00,33,8.50
2020,06,03,00,34,8.50
2020,06,03,00,35,8.40
2020,06,03,00,36,8.40
2020,06,03,00,37,8.40
2020,06,03,00,38,8.40
2020,06,03,00,39,8.40
2020,06,03,00,40,8.40
2020,06,03,00,41,8.40
2020,06,03,00,42,8.40
2020,06,03,00,43,8.40
2020,06,03,00,44,8.40
2020,06,03,00,45,8.40
2020,06,03,00,46,8.40
2020,06,03,00,47,8.40
2020,06,03,00,48,8.40
2020,06,03,00,49,8.40
2020,06,03,00,50,8.40
2020,06,03,00,51,8.40
2020,06,03,00,52,8.40
2020,06,03,00,53,8.40
2020,06,03,00,54,8.40
2020,06,03,00,55,8.30
2020,06,03,00,56,8.30
2020,06,03,00,57,8.30
2020,06,03,00,58,8.30
2020,06,03,00,59,8.30
2020,06,03,01,00,8.30
2020,06,03,01,01,8.30
2020,06,03,01,02,8.30
2020,06,03,01,03,8.30
2020,06,03,01,04,8.30
2020,06,03,01,05,8.30
2020,06,03,01,06,8.30
2020,06,03,01,07,8.30
2020,06,03,01,08,8.30
2020,06,03,01,09,8.30
2020,06,03,01,10,8.30
2020,06,03,01,11,8.20
2020,06,03,01,12,8.20
2020,06,03,01,13,8.20
2020,06,03,01,14,8.20
2020,06,03,01,15,8.20
2020,06,03,01,16,8.20
2020,06,03,01,17,8.20
2020,06,03,01,18,8.20
2020,06,03,01,19,8.20
2020,06,03,01,20,8.20
2020,06,03,01,21,8.20
2020,06,03,01,22,8.20
2020,06,03,01,23,8.20
2020,06,03,01,24,8.20
2020,06,03,01,25,8.20
2020,06,03,01,26,8.20
2020,06,03,01,27,8.20
2020,06,03,01,28,8.20
2020,06,03,01,29,8.10
2020,06,03,01,30,8.10
2020,06,03,01,31,8.10
2020,06,03,01,32,8.10
2020,06,03,01,33,8.10
2020,06,03,01,34,8.10
2020,06,03,01,35,8.10
2020,06,03,01,36,8.10
2020,06,03,01,37,8.10
2020,06,03,01,38,8.10
2020,06,03,01,39,8.10
2020,06,03,01,40,8.10
2020,06,03,01,41,8.10
2020,06,03,01,42,8.10
2020,06,03,01,43,8.10
2020,06,03,01,44,8.10
2020,06,03,01,45,8.10
2020,06,03,01,46,8.10
2020,06,03,01,47,8.10
2020,06,03,01,48,8.10
2020,06,03,01,49,8.10
2020,06,03,01,50,8.10
2020,06,03,01,51,8.10
2020,06,03,01,52,8.10
2020,06,03,01,53,8.00
2020,06,03,01,54,8.10
2020,06,03,01,55,8.10
2020,06,03,01,56,8.10
2020,06,03,01,57,8.00
2020,06,03,01,58,8.00
2020,06,03,01,59,8.00
2020,06,03,02,00,8.00
2020,06,03,02,01,8.00
2020,06,03,02,02,8.00
2020,06,03,02,03,8.00
2020,06,03,02,04,8.00
2020,06,03,02,05,8.00
2020,06,03,02,06,8.00
2020,06,03,02,07,8.00
2020,06,03,02,08,8.00
2020,06,03,02,09,8.00
2020,06,03,02,10,8.00
2020,06,03,02,11,8.00
2020,06,03,02,12,8.00
2020,06,03,02,13,7.90
2020,06,03,02,14,7.90
2020,06,03,02,15,7.90
2020,06,03,02,16,7.90
2020,06,03,02,17,7.90
2020,06,03,02,18,7.90
2020,06,03,02,19,7.90
2020,06,03,02,20,7.90
2020,06,03,02,21,7.90
2020,06,03,02,22,7.90
2020,06,03,02,23,7.90
2020,06,03,02,24,7.90
2020,06,03,02,25,7.90
2020,06,03,02,26,7.90
2020,06,03,02,27,7.90
2020,06,03,02,28,7.90
2020,06,03,02,29,7.90
2020,06,03,02,30,7.90
2020,06,03,02,31,7.90
2020,06,03,02,32,7.90
2020,06,03,02,33,7.90
2020,06,03,02,34,7.90
2020,06,03,02,35,7.90
2020,06,03,02,36,7.90
2020,06,03,02,37,7.80
2020,06,03,02,38,7.90
2020,06,03,02,39,7.80
2020,06,03,02,40,7.80
2020,06,03,02,41,7.80
2020,06,03,02,42,7.80
2020,06,03,02,43,7.80
2020,06,03,02,44,7.80
2020,06,03,02,45,7.80
2020,06,03,02,46,7.80
2020,06,03,02,47,7.80
2020,06,03,02,48,7.80
2020,06,03,02,49,7.80
2020,06,03,02,50,7.80
2020,06,03,02,51,7.80
2020,06,03,02,52,7.80
2020,06,03,02,53,7.80
2020,06,03,02,54,7.80
2020,06,03,02,55,7.80
2020,06,03,02,56,7.80
2020,06,03,02,57,7.80
2020,06,03,02,58,7.80
2020,06,03,02,59,7.90
2020,06,03,03,00,7.90
2020,06,03,03,01,7.90
2020,06,03,03,02,7.90
2020,06,03,03,03,7.90
2020,06,03,03,04,7.90
2020,06,03,03,05,7.90
2020,06,03,03,06,7.90
2020,06,03,03,07,7.90
2020,06,03,03,08,7.90
2020,06,03,03,09,8.00
2020,06,03,03,10,8.00
2020,06,03,03,11,8.00
2020,06,03,03,12,8.10
2020,06,03,03,13,8.10
2020,06,03,03,14,8.10
2020,06,03,03,15,8.10
2020,06,03,03,16,8.10
2020,06,03,03,17,8.10
2020,06,03,03,18,8.10
2020,06,03,03,19,8.20
2020,06,03,03,20,8.20
2020,06,03,03,21,8.20
2020,06,03,03,22,8.20
2020,06,03,03,23,8.20
2020,06,03,03,24,8.20
2020,06,03,03,25,8.20
2020,06,03,03,26,8.20
2020,06,03,03,27,8.20
2020,06,03,03,28,8.30
2020,06,03,03,29,8.30
2020,06,03,03,30,8.30
2020,06,03,03,31,8.30
2020,06,03,03,32,8.30
2020,06,03,03,33,8.30
2020,06,03,03,34,8.30
2020,06,03,03,35,8.30
2020,06,03,03,36,8.30
2020,06,03,03,37,8.40
2020,06,03,03,38,8.40
2020,06,03,03,39,8.40
2020,06,03,03,40,8.40
2020,06,03,03,41,8.40
2020,06,03,03,42,8.40
2020,06,03,03,43,8.40
2020,06,03,03,44,8.50
2020,06,03,03,45,8.50
2020,06,03,03,46,8.50
2020,06,03,03,47,8.50
2020,06,03,03,48,8.50
2020,06,03,03,49,8.60
2020,06,03,03,50,8.60
2020,06,03,03,51,8.60
2020,06,03,03,52,8.60
2020,06,03,03,53,8.60
2020,06,03,03,54,8.60
2020,06,03,03,55,8.60
2020,06,03,03,56,8.60
2020,06,03,03,57,8.60
2020,06,03,03,58,8.60
2020,06,03,03,59,8.70
2020,06,03,04,00,8.70
2020,06,03,04,01,8.70
2020,06,03,04,02,8.70
2020,06,03,04,03,8.70
2020,06,03,04,04,8.70
2020,06,03,04,05,8.70
2020,06,03,04,06,8.70
2020,06,03,04,07,8.70
2020,06,03,04,08,8.70
2020,06,03,04,09,8.70
2020,06,03,04,10,8.80
2020,06,03,04,11,8.80
2020,06,03,04,12,8.80
2020,06,03,04,13,8.80
2020,06,03,04,14,8.80
2020,06,03,04,15,8.80
2020,06,03,04,16,8.80
2020,06,03,04,17,8.80
2020,06,03,04,18,8.80
2020,06,03,04,19,8.80
2020,06,03,04,20,8.80
2020,06,03,04,21,8.80
2020,06,03,04,22,8.80
2020,06,03,04,23,8.80
2020,06,03,04,24,8.90
2020,06,03,04,25,8.90
2020,06,03,04,26,8.90
2020,06,03,04,27,8.90
2020,06,03,04,28,8.90
2020,06,03,04,29,8.90
2020,06,03,04,30,8.90
2020,06,03,04,31,8.90
2020,06,03,04,32,8.90
2020,06,03,04,33,8.90
2020,06,03,04,34,8.90
2020,06,03,04,35,8.90
2020,06,03,04,36,8.90
2020,06,03,04,37,8.90
2020,06,03,04,38,8.90
2020,06,03,04,39,8.90
2020,06,03,04,40,8.90
2020,06,03,04,41,8.90
2020,06,03,04,42,8.90
2020,06,03,04,43,8.90
2020,06,03,04,44,8.90
2020,06,03,04,45,8.90
2020,06,03,04,46,8.90
2020,06,03,04,47,8.90
2020,06,03,04,48,8.90
2020,06,03,04,49,8.90
2020,06,03,04,50,8.90
2020,06,03,04,51,8.90
2020,06,03,04,52,8.90
2020,06,03,04,53,8.90
2020,06,03,04,54,8.90
2020,06,03,04,55,8.90
2020,06,03,04,56,8.90
2020,06,03,04,57,8.90
2020,06,03,04,58,8.90
2020,06,03,04,59,8.90
2020,06,03,05,00,8.90
2020,06,03,05,01,8.90
2020,06,03,05,02,8.90
2020,06,03,05,03,8.90
2020,06,03,05,04,8.90
2020,06,03,05,05,8.90
2020,06,03,05,06,8.80
2020,06,03,05,07,8.90
2020,06,03,05,08,8.80
2020,06,03,05,09,8.80
2020,06,03,05,10,8.80
2020,06,03,05,11,8.80
2020,06,03,05,12,8.80
2020,06,03,05,13,8.80
2020,06,03,05,14,8.80
2020,06,03,05,15,8.80
2020,06,03,05,16,8.80
2020,06,03,05,17,8.80
2020,06,03,05,18,8.80
2020,06,03,05,19,8.80
2020,06,03,05,20,8.80
2020,06,03,05,21,8.80
2020,06,03,05,22,8.80
2020,06,03,05,23,8.80
2020,06,03,05,24,8.80
2020,06,03,05,25,8.80
2020,06,03,05,26,8.80
2020,06,03,05,27,8.80
2020,06,03,05,28,8.80
2020,06,03,05,29,8.80
2020,06,03,05,30,8.80
2020,06,03,05,31,8.80
2020,06,03,05,32,8.80
2020,06,03,05,33,8.80
2020,06,03,05,34,8.80
2020,06,03,05,35,8.80
2020,06,03,05,36,8.80
2020,06,03,05,37,8.80
2020,06,03,05,38,8.80
2020,06,03,05,39,8.80
2020,06,03,05,40,8.80
2020,06,03,05,41,8.80
2020,06,03,05,42,8.80
2020,06,03,05,43,8.80
2020,06,03,05,44,8.80
2020,06,03,05,45,8.80
2020,06,03,05,46,8.80
2020,06,03,05,47,8.80
2020,06,03,05,48,8.80
2020,06,03,05,49,8.80
2020,06,03,05,50,8.80
2020,06,03,05,51,8.80
2020,06,03,05,52,8.80
2020,06,03,05,53,8.80
2020,06,03,05,54,8.80
2020,06,03,05,55,8.80
2020,06,03,05,56,8.80
2020,06,03,05,57,8.80
2020,06,03,05,58,8.80
2020,06,03,05,59,8.80
2020,06,03,06,00,8.80
2020,06,03,06,01,8.80
2020,06,03,06,02,8.80
2020,06,03,06,03,8.80
2020,06,03,06,04,8.80
2020,06,03,06,05,8.80
2020,06,03,06,06,8.90
2020,06,03,06,07,8.90
2020,06,03,06,08,8.90
2020,06,03,06,09,8.90
2020,06,03,06,10,8.90
2020,06,03,06,11,8.90
2020,06,03,06,12,8.90
2020,06,03,06,13,8.90
2020,06,03,06,14,8.90
2020,06,03,06,15,8.90
2020,06,03,06,16,9.00
2020,06,03,06,17,9.00
2020,06,03,06,18,9.00
2020,06,03,06,19,9.00
2020,06,03,06,20,9.00
2020,06,03,06,21,9.00
2020,06,03,06,22,9.00
2020,06,03,06,23,9.10
2020,06,03,06,24,9.10
2020,06,03,06,25,9.10
2020,06,03,06,26,9.10
2020,06,03,06,27,9.10
2020,06,03,06,28,9.10
2020,06,03,06,29,9.10
2020,06,03,06,30,9.10
2020,06,03,06,31,9.10
2020,06,03,06,32,9.10
2020,06,03,06,33,9.10
2020,06,03,06,34,9.20
2020,06,03,06,35,9.20
2020,06,03,06,36,9.20
2020,06,03,06,37,9.20
2020,06,03,06,38,9.20
2020,06,03,06,39,9.20
2020,06,03,06,40,9.20
2020,06,03,06,41,9.20
2020,06,03,06,42,9.20
2020,06,03,06,43,9.20
2020,06,03,06,44,9.20
2020,06,03,06,45,9.20
2020,06,03,06,46,9.20
2020,06,03,06,47,9.30
2020,06,03,06,48,9.30
2020,06,03,06,49,9.30
2020,06,03,06,50,9.30
2020,06,03,06,51,9.30
2020,06,03,06,52,9.30
2020,06,03,06,53,9.30
2020,06,03,06,54,9.40
2020,06,03,06,55,9.40
2020,06,03,06,56,9.40
2020,06,03,06,57,9.50
2020,06,03,06,58,9.50
2020,06,03,06,59,9.60
2020,06,03,07,00,9.60
2020,06,03,07,01,9.60
2020,06,03,07,02,9.70
2020,06,03,07,03,9.70
2020,06,03,07,04,9.70
2020,06,03,07,05,9.70
2020,06,03,07,06,9.70
2020,06,03,07,07,9.70
2020,06,03,07,08,9.70
2020,06,03,07,09,9.70
2020,06,03,07,10,9.70
2020,06,03,07,11,9.70
2020,06,03,07,12,9.70
2020,06,03,07,13,9.80
2020,06,03,07,14,9.80
2020,06,03,07,15,9.80
2020,06,03,07,16,9.80
2020,06,03,07,17,9.80
2020,06,03,07,18,9.80
2020,06,03,07,19,9.80
2020,06,03,07,20,9.80
2020,06,03,07,21,9.80
2020,06,03,07,22,9.80
2020,06,03,07,23,9.80
2020,06,03,07,24,9.90
2020,06,03,07,25,9.90
2020,06,03,07,26,9.90
2020,06,03,07,27,10.00
2020,06,03,07,28,10.00
2020,06,03,07,29,10.10
2020,06,03,07,30,10.10
2020,06,03,07,31,10.10
2020,06,03,07,32,10.20
2020,06,03,07,33,10.20
2020,06,03,07,34,10.20
2020,06,03,07,35,10.20
2020,06,03,07,36,10.20
2020,06,03,07,37,10.30
2020,06,03,07,38,10.30
2020,06,03,07,39,10.30
2020,06,03,07,40,10.30
2020,06,03,07,41,10.30
2020,06,03,07,42,10.30
2020,06,03,07,43,10.30
2020,06,03,07,44,10.30
2020,06,03,07,45,10.40
2020,06,03,07,46,10.40
2020,06,03,07,47,10.40
2020,06,03,07,48,10.40
2020,06,03,07,49,10.50
2020,06,03,07,50,10.50
2020,06,03,07,51,10.60
2020,06,03,07,52,10.60
2020,06,03,07,53,10.60
2020,06,03,07,54,10.60
2020,06,03,07,55,10.70
2020,06,03,07,56,10.70
2020,06,03,07,57,10.80
2020,06,03,07,58,10.80
2020,06,03,07,59,10.80
2020,06,03,08,00,10.80
2020,06,03,08,01,10.80
2020,06,03,08,02,10.80
2020,06,03,08,03,10.90
2020,06,03,08,04,10.90
2020,06,03,08,05,10.90
2020,06,03,08,06,11.00
2020,06,03,08,07,11.00
2020,06,03,08,08,11.10
2020,06,03,08,09,11.10
2020,06,03,08,10,11.10
2020,06,03,08,11,11.10
2020,06,03,08,12,11.20
2020,06,03,08,13,11.20
2020,06,03,08,14,11.20
2020,06,03,08,15,11.30
2020,06,03,08,16,11.30
2020,06,03,08,17,11.30
2020,06,03,08,18,11.40
2020,06,03,08,19,11.40
2020,06,03,08,20,11.40
2020,06,03,08,21,11.50
2020,06,03,08,22,11.50
2020,06,03,08,23,11.50
2020,06,03,08,24,11.60
2020,06,03,08,25,11.60
2020,06,03,08,26,11.60
2020,06,03,08,27,11.70
2020,06,03,08,28,11.70
2020,06,03,08,29,11.70
2020,06,03,08,30,11.70
2020,06,03,08,31,11.70
2020,06,03,08,32,11.80
2020,06,03,08,33,11.80
2020,06,03,08,34,11.80
2020,06,03,08,35,11.80
2020,06,03,08,36,11.80
2020,06,03,08,37,11.80
2020,06,03,08,38,11.80
2020,06,03,08,39,11.80
2020,06,03,08,40,11.80
2020,06,03,08,41,11.90
2020,06,03,08,42,11.90
2020,06,03,08,43,11.90
2020,06,03,08,44,11.90
2020,06,03,08,45,11.90
2020,06,03,08,46,11.90
2020,06,03,08,47,11.90
2020,06,03,08,48,12.00
2020,06,03,08,49,12.00
2020,06,03,08,50,12.00
2020,06,03,08,51,12.00
2020,06,03,08,52,12.10
2020,06,03,08,53,12.10
2020,06,03,08,54,12.10
2020,06,03,08,55,12.10
2020,06,03,08,56,12.10
2020,06,03,08,57,12.10
2020,06,03,08,58,12.20
2020,06,03,08,59,12.20
2020,06,03,09,00,12.20
2020,06,03,09,01,12.20
2020,06,03,09,02,12.20
2020,06,03,09,03,12.30
2020,06,03,09,04,12.30
2020,06,03,09,05,12.30
2020,06,03,09,06,12.30
2020,06,03,09,07,12.30
2020,06,03,09,08,12.30
2020,06,03,09,09,12.30
2020,06,03,09,10,12.40
2020,06,03,09,11,12.40
2020,06,03,09,12,12.40
2020,06,03,09,13,12.40
2020,06,03,09,14,12.40
2020,06,03,09,15,12.50
2020,06,03,09,16,12.50
2020,06,03,09,17,12.50
2020,06,03,09,18,12.50
2020,06,03,09,19,12.60
2020,06,03,09,20,12.60
2020,06,03,09,21,12.60
2020,06,03,09,22,12.60
2020,06,03,09,23,12.60
2020,06,03,09,24,12.60
2020,06,03,09,25,12.60
2020,06,03,09,26,12.60
2020,06,03,09,27,12.60
2020,06,03,09,28,12.60
2020,06,03,09,29,12.70
2020,06,03,09,30,12.70
2020,06,03,09,31,12.70
2020,06,03,09,32,12.70
2020,06,03,09,33,12.70
2020,06,03,09,34,12.70
2020,06,03,09,35,12.70
2020,06,03,09,36,12.70
2020,06,03,09,37,12.70
2020,06,03,09,38,12.70
2020,06,03,09,39,12.70
2020,06,03,09,40,12.70
2020,06,03,09,41,12.70
2020,06,03,09,42,12.70
2020,06,03,09,43,12.70
2020,06,03,09,44,12.70
2020,06,03,09,45,12.70
2020,06,03,09,46,12.70
2020,06,03,09,47,12.70
2020,06,03,09,48,12.70
2020,06,03,09,49,12.70
2020,06,03,09,50,12.80
2020,06,03,09,51,12.80
2020,06,03,09,52,12.80
2020,06,03,09,53,12.80
2020,06,03,09,54,12.80
2020,06,03,09,55,12.80
2020,06,03,09,56,12.80
2020,06,03,09,57,12.80
2020,06,03,09,58,12.80
2020,06,03,09,59,12.90
2020,06,03,10,00,12.90
2020,06,03,10,01,12.90
2020,06,03,10,02,12.90
2020,06,03,10,03,12.90
2020,06,03,10,04,12.90
2020,06,03,10,05,12.90
2020,06,03,10,06,12.90
2020,06,03,10,07,12.90
2020,06,03,10,08,12.90
2020,06,03,10,09,12.90
2020,06,03,10,10,12.90
2020,06,03,10,11,12.90
2020,06,03,10,12,12.90
2020,06,03,10,13,12.90
2020,06,03,10,14,12.80
2020,06,03,10,15,12.80
2020,06,03,10,16,12.80
2020,06,03,10,17,12.70
2020,06,03,10,18,12.70
2020,06,03,10,19,12.70
2020,06,03,10,20,12.70
2020,06,03,10,21,12.70
2020,06,03,10,22,12.70
2020,06,03,10,23,12.70
2020,06,03,10,24,12.80
2020,06,03,10,25,12.80
2020,06,03,10,26,12.80
2020,06,03,10,27,12.80
2020,06,03,10,28,12.90
2020,06,03,10,29,12.90
2020,06,03,10,30,12.90
2020,06,03,10,31,12.90
2020,06,03,10,32,13.00
2020,06,03,10,33,13.00
2020,06,03,10,34,13.10
2020,06,03,10,35,13.10
2020,06,03,10,36,13.10
2020,06,03,10,37,13.10
2020,06,03,10,38,13.10
2020,06,03,10,39,13.10
2020,06,03,10,40,13.20
2020,06,03,10,41,13.20
2020,06,03,10,42,13.20
2020,06,03,10,43,13.20
2020,06,03,10,44,13.30
2020,06,03,10,45,13.30
2020,06,03,10,46,13.30
2020,06,03,10,47,13.30
2020,06,03,10,48,13.30
2020,06,03,10,49,13.30
2020,06,03,10,50,13.30
2020,06,03,10,51,13.30
2020,06,03,10,52,13.30
2020,06,03,10,53,13.30
2020,06,03,10,54,13.30
2020,06,03,10,55,13.30
2020,06,03,10,56,13.30
2020,06,03,10,57,13.40
2020,06,03,10,58,13.40
2020,06,03,10,59,13.40
2020,06,03,11,00,13.40
2020,06,03,11,01,13.40
2020,06,03,11,02,13.40
2020,06,03,11,03,13.40
2020,06,03,11,04,13.40
2020,06,03,11,05,13.40
2020,06,03,11,06,13.40
2020,06,03,11,07,13.40
2020,06,03,11,08,13.40
2020,06,03,11,09,13.40
2020,06,03,11,10,13.40
2020,06,03,11,11,13.40
2020,06,03,11,12,13.40
2020,06,03,11,13,13.40
2020,06,03,11,14,13.30
2020,06,03,11,15,13.30
2020,06,03,11,16,13.30
2020,06,03,11,17,13.30
2020,06,03,11,18,13.30
2020,06,03,11,19,13.30
2020,06,03,11,20,13.30
2020,06,03,11,21,13.30
2020,06,03,11,22,13.30
2020,06,03,11,23,13.30
2020,06,03,11,24,13.30
2020,06,03,11,25,13.40
2020,06,03,11,26,13.50
2020,06,03,11,27,13.50
2020,06,03,11,28,13.60
2020,06,03,11,29,13.60
2020,06,03,11,30,13.70
2020,06,03,11,31,13.70
2020,06,03,11,32,13.70
2020,06,03,11,33,13.80
2020,06,03,11,34,13.80
2020,06,03,11,35,13.80
2020,06,03,11,36,13.80
2020,06,03,11,37,13.90
2020,06,03,11,38,13.90
2020,06,03,11,39,13.90
2020,06,03,11,40,13.90
2020,06,03,11,41,14.00
2020,06,03,11,42,14.00
2020,06,03,11,43,14.00
2020,06,03,11,44,14.10
2020,06,03,11,45,14.10
2020,06,03,11,46,14.20
2020,06,03,11,47,14.20
2020,06,03,11,48,14.20
2020,06,03,11,49,14.20
2020,06,03,11,50,14.20
2020,06,03,11,51,14.20
2020,06,03,11,52,14.20
2020,06,03,11,53,14.20
2020,06,03,11,54,14.20
2020,06,03,11,55,14.20
2020,06,03,11,56,14.20
2020,06,03,11,57,14.20
2020,06,03,11,58,14.20
2020,06,03,11,59,14.20
2020,06,03,12,00,14.20
2020,06,03,12,01,14.20
2020,06,03,12,02,14.20
2020,06,03,12,03,14.20
2020,06,03,12,04,14.20
2020,06,03,12,05,14.20
2020,06,03,12,06,14.10
2020,06,03,12,07,14.10
2020,06,03,12,08,14.10
2020,06,03,12,09,14.10
2020,06,03,12,10,14.10
2020,06,03,12,11,14.10
2020,06,03,12,12,14.10
2020,06,03,12,13,14.10
2020,06,03,12,14,14.20
2020,06,03,12,15,14.20
2020,06,03,12,16,14.20
2020,06,03,12,17,14.20
2020,06,03,12,18,14.20
2020,06,03,12,19,14.20
2020,06,03,12,20,14.20
2020,06,03,12,21,14.20
2020,06,03,12,22,14.20
2020,06,03,12,23,14.30
2020,06,03,12,24,14.30
2020,06,03,12,25,14.30
2020,06,03,12,26,14.40
2020,06,03,12,27,14.40
2020,06,03,12,28,14.40
2020,06,03,12,29,14.50
2020,06,03,12,30,14.60
2020,06,03,12,31,14.60
2020,06,03,12,32,14.70
2020,06,03,12,33,14.70
2020,06,03,12,34,14.70
2020,06,03,12,35,14.70
2020,06,03,12,36,14.70
2020,06,03,12,37,14.80
2020,06,03,12,38,14.80
2020,06,03,12,39,14.80
2020,06,03,12,40,14.80
2020,06,03,12,41,14.80
2020,06,03,12,42,14.80
2020,06,03,12,43,14.80
2020,06,03,12,44,14.80
2020,06,03,12,45,14.80
2020,06,03,12,46,14.80
2020,06,03,12,47,14.80
2020,06,03,12,48,14.80
2020,06,03,12,49,14.80
2020,06,03,12,50,14.80
2020,06,03,12,51,14.90
2020,06,03,12,52,14.90
2020,06,03,12,53,15.00
2020,06,03,12,54,15.00
2020,06,03,12,55,15.00
2020,06,03,12,56,15.10
2020,06,03,12,57,15.10
2020,06,03,12,58,15.10
2020,06,03,12,59,15.10
2020,06,03,13,00,15.10
2020,06,03,13,01,15.10
2020,06,03,13,02,15.10
2020,06,03,13,03,15.10
2020,06,03,13,04,15.20
2020,06,03,13,05,15.20
2020,06,03,13,06,15.20
2020,06,03,13,07,15.20
2020,06,03,13,08,15.20
2020,06,03,13,09,15.20
2020,06,03,13,10,15.20
2020,06,03,13,11,15.20
2020,06,03,13,12,15.20
2020,06,03,13,13,15.20
2020,06,03,13,14,15.20
2020,06,03,13,15,15.20
2020,06,03,13,16,15.20
2020,06,03,13,17,15.20
2020,06,03,13,18,15.20
2020,06,03,13,19,15.20
2020,06,03,13,20,15.20
2020,06,03,13,21,15.20
2020,06,03,13,22,15.20
2020,06,03,13,23,15.20
2020,06,03,13,24,15.20
2020,06,03,13,25,15.20
2020,06,03,13,26,15.20
2020,06,03,13,27,15.20
2020,06,03,13,28,15.30
2020,06,03,13,29,15.30
2020,06,03,13,30,15.30
2020,06,03,13,31,15.40
2020,06,03,13,32,15.40
2020,06,03,13,33,15.50
2020,06,03,13,34,15.50
2020,06,03,13,35,15.60
2020,06,03,13,36,15.60
2020,06,03,13,37,15.60
2020,06,03,13,38,15.70
2020,06,03,13,39,15.70
2020,06,03,13,40,15.70
2020,06,03,13,41,15.70
2020,06,03,13,42,15.70
2020,06,03,13,43,15.70
2020,06,03,13,44,15.80
2020,06,03,13,45,15.80
2020,06,03,13,46,15.80
2020,06,03,13,47,15.90
2020,06,03,13,48,15.90
2020,06,03,13,49,16.00
2020,06,03,13,50,16.00
2020,06,03,13,51,16.00
2020,06,03,13,52,16.10
2020,06,03,13,53,16.10
2020,06,03,13,54,16.10
2020,06,03,13,55,16.00
2020,06,03,13,56,16.00
2020,06,03,13,57,15.90
2020,06,03,13,58,15.80
2020,06,03,13,59,15.70
2020,06,03,14,00,15.70
2020,06,03,14,01,15.70
2020,06,03,14,02,15.70
2020,06,03,14,03,15.80
2020,06,03,14,04,15.80
2020,06,03,14,05,15.80
2020,06,03,14,06,15.80
2020,06,03,14,07,15.80
2020,06,03,14,08,15.80
2020,06,03,14,09,15.90
2020,06,03,14,10,15.90
2020,06,03,14,11,15.90
2020,06,03,14,12,16.00
2020,06,03,14,13,16.10
2020,06,03,14,14,16.10
2020,06,03,14,15,16.20
2020,06,03,14,16,16.20
2020,06,03,14,17,16.20
2020,06,03,14,18,16.10
2020,06,03,14,19,16.10
2020,06,03,14,20,16.00
2020,06,03,14,21,16.00
2020,06,03,14,22,16.00
2020,06,03,14,23,16.00
2020,06,03,14,24,16.00
2020,06,03,14,25,16.00
2020,06,03,14,26,16.00
2020,06,03,14,27,16.00
2020,06,03,14,28,16.10
2020,06,03,14,29,16.10
2020,06,03,14,30,16.10
2020,06,03,14,31,16.20
2020,06,03,14,32,16.20
2020,06,03,14,33,16.10
2020,06,03,14,34,16.10
2020,06,03,14,35,16.00
2020,06,03,14,36,16.00
2020,06,03,14,37,15.90
2020,06,03,14,38,15.90
2020,06,03,14,39,15.80
2020,06,03,14,40,15.80
2020,06,03,14,41,15.80
2020,06,03,14,42,15.80
2020,06,03,14,43,15.80
2020,06,03,14,44,15.70
2020,06,03,14,45,15.70
2020,06,03,14,46,15.60
2020,06,03,14,47,15.60
2020,06,03,14,48,15.50
2020,06,03,14,49,15.50
2020,06,03,14,50,15.50
2020,06,03,14,51,15.50
2020,06,03,14,52,15.50
2020,06,03,14,53,15.60
2020,06,03,14,54,15.60
2020,06,03,14,55,15.60
2020,06,03,14,56,15.60
2020,06,03,14,57,15.60
2020,06,03,14,58,15.60
2020,06,03,14,59,15.60
2020,06,03,15,00,15.60
2020,06,03,15,01,15.60
2020,06,03,15,02,15.60
2020,06,03,15,03,15.70
2020,06,03,15,04,15.70
2020,06,03,15,05,15.70
2020,06,03,15,06,15.70
2020,06,03,15,07,15.70
2020,06,03,15,08,15.60
2020,06,03,15,09,15.60
2020,06,03,15,10,15.60
2020,06,03,15,11,15.50
2020,06,03,15,12,15.50
2020,06,03,15,13,15.40
2020,06,03,15,14,15.40
2020,06,03,15,15,15.40
2020,06,03,15,16,15.40
2020,06,03,15,17,15.40
2020,06,03,15,18,15.40
2020,06,03,15,19,15.40
2020,06,03,15,20,15.40
2020,06,03,15,21,15.40
2020,06,03,15,22,15.40
2020,06,03,15,23,15.40
2020,06,03,15,24,15.40
2020,06,03,15,25,15.40
2020,06,03,15,26,15.40
2020,06,03,15,27,15.40
2020,06,03,15,28,15.40
2020,06,03,15,29,15.40
2020,06,03,15,30,15.40
2020,06,03,15,31,15.40
2020,06,03,15,32,15.30
2020,06,03,15,33,15.30
2020,06,03,15,34,15.30
2020,06,03,15,35,15.30
2020,06,03,15,36,15.40
2020,06,03,15,37,15.40
2020,06,03,15,38,15.40
2020,06,03,15,39,15.40
2020,06,03,15,40,15.40
2020,06,03,15,41,15.40
2020,06,03,15,42,15.40
2020,06,03,15,43,15.50
2020,06,03,15,44,15.50
2020,06,03,15,45,15.60
2020,06,03,15,46,15.60
2020,06,03,15,47,15.60
2020,06,03,15,48,15.60
2020,06,03,15,49,15.60
2020,06,03,15,50,15.60
2020,06,03,15,51,15.60
2020,06,03,15,52,15.60
2020,06,03,15,53,15.60
2020,06,03,15,54,15.60
2020,06,03,15,55,15.60
2020,06,03,15,56,15.70
2020,06,03,15,57,15.70
2020,06,03,15,58,15.70
2020,06,03,15,59,15.70
2020,06,03,16,00,15.80
2020,06,03,16,01,15.80
2020,06,03,16,02,15.80
2020,06,03,16,03,15.80
2020,06,03,16,04,15.80
2020,06,03,16,05,15.80
2020,06,03,16,06,15.80
2020,06,03,16,07,15.90
2020,06,03,16,08,15.90
2020,06,03,16,09,15.90
2020,06,03,16,10,15.90
2020,06,03,16,11,15.90
2020,06,03,16,12,15.90
2020,06,03,16,13,15.90
2020,06,03,16,14,15.90
2020,06,03,16,15,15.90
2020,06,03,16,16,16.00
2020,06,03,16,17,16.00
2020,06,03,16,18,16.00
2020,06,03,16,19,16.00
2020,06,03,16,20,16.00
2020,06,03,16,21,16.00
2020,06,03,16,22,16.00
2020,06,03,16,23,15.90
2020,06,03,16,24,15.90
2020,06,03,16,25,15.90
2020,06,03,16,26,15.80
2020,06,03,16,27,15.80
2020,06,03,16,28,15.80
2020,06,03,16,29,15.80
2020,06,03,16,30,15.70
2020,06,03,16,31,15.70
2020,06,03,16,32,15.60
2020,06,03,16,33,15.60
2020,06,03,16,34,15.60
2020,06,03,16,35,15.60
2020,06,03,16,36,15.60
2020,06,03,16,37,15.50
2020,06,03,16,38,15.50
2020,06,03,16,39,15.50
2020,06,03,16,40,15.60
2020,06,03,16,41,15.60
2020,06,03,16,42,15.60
2020,06,03,16,43,15.60
2020,06,03,16,44,15.60
2020,06,03,16,45,15.50
2020,06,03,16,46,15.50
2020,06,03,16,47,15.50
2020,06,03,16,48,15.50
2020,06,03,16,49,15.40
2020,06,03,16,50,15.40
2020,06,03,16,51,15.40
2020,06,03,16,52,15.30
2020,06,03,16,53,15.30
2020,06,03,16,54,15.30
2020,06,03,16,55,15.20
2020,06,03,16,56,15.20
2020,06,03,16,57,15.20
2020,06,03,16,58,15.20
2020,06,03,16,59,15.20
2020,06,03,17,00,15.20
2020,06,03,17,01,15.20
2020,06,03,17,02,15.20
2020,06,03,17,03,15.20
2020,06,03,17,04,15.20
2020,06,03,17,05,15.20
2020,06,03,17,06,15.20
2020,06,03,17,07,15.20
2020,06,03,17,08,15.20
2020,06,03,17,09,15.20
2020,06,03,17,10,15.20
2020,06,03,17,11,15.30
2020,06,03,17,12,15.30
2020,06,03,17,13,15.30
2020,06,03,17,14,15.30
2020,06,03,17,15,15.30
2020,06,03,17,16,15.30
2020,06,03,17,17,15.40
2020,06,03,17,18,15.40
2020,06,03,17,19,15.40
2020,06,03,17,20,15.40
2020,06,03,17,21,15.40
2020,06,03,17,22,15.40
2020,06,03,17,23,15.50
2020,06,03,17,24,15.50
2020,06,03,17,25,15.50
2020,06,03,17,26,15.50
2020,06,03,17,27,15.50
2020,06,03,17,28,15.40
2020,06,03,17,29,15.40
2020,06,03,17,30,15.40
2020,06,03,17,31,15.40
2020,06,03,17,32,15.50
2020,06,03,17,33,15.50
2020,06,03,17,34,15.50
2020,06,03,17,35,15.50
2020,06,03,17,36,15.60
2020,06,03,17,37,15.60
2020,06,03,17,38,15.60